Regional Weather Roundup
Issued by NWS

Home | Current Version | Previous Version | Graphics & Text | Print | Product List | Glossary On
Versions: 1 2 3 4 5 6 7 8 9 10 11 12 13 14 15 16 17 18 19 20 21 22 23 24 25 26 27 28 29 30 31 32 33 34 35 36 37 38 39 40 41 42 43 44 45 46 47 48 49 50
000
ASUS43 KBIS 050101
RWRND

NORTH DAKOTA REGIONAL WEATHER ROUNDUP
NATIONAL WEATHER SERVICE BISMARCK ND
800 PM CDT MON MAY 04 2015

NOTE: "FAIR" INDICATES FEW OR NO CLOUDS BELOW 12,000 FEET WITH NO
SIGNIFICANT WEATHER AND/OR OBSTRUCTIONS TO VISIBILITY.


NDZ001>003-009>011-017-050200-
NORTHWEST NORTH DAKOTA

CITY           SKY/WX    TMP DP  RH WIND       PRES   REMARKS
WILLISTON      SUNNY     66  40  38 S18G28    30.01S
MINOT          CLEAR     67  26  21 S17G24    30.06F
MINOT AFB      CLEAR     70  28  20 S14       30.05F
$$

NDZ018>021-031>035-040>046-050200-
SOUTHWEST NORTH DAKOTA

CITY           SKY/WX    TMP DP  RH WIND       PRES   REMARKS
BISMARCK       CLEAR     65  25  22 S10       30.12F
DICKINSON      CLEAR     56  33  42 S18G26    30.07F
GARRISON         N/A     63  30  28 S12       30.08F
HETTINGER ARPT CLOUDY    51  34  52 SE12      30.12F
$$

NDZ004>008-012>016-024-026-027-054-050200-
NORTHEAST NORTH DAKOTA

CITY           SKY/WX    TMP DP  RH WIND       PRES   REMARKS
GRAND FORKS    CLEAR     67  25  20 CALM      30.15S
GRND FRKS AFB  CLEAR     67  25  20 S3        30.15S
DEVILS LAKE    CLEAR     63  30  29 SE6       30.13S
$$

NDZ022-023-025-028>030-036>039-047>053-050200-
SOUTHEAST NORTH DAKOTA

CITY           SKY/WX    TMP DP  RH WIND       PRES   REMARKS
FARGO          CLEAR     64  30  27 S7        30.16S
JAMESTOWN      CLEAR     63  25  23 S5        30.15S
$$



USA.gov is the U.S. government's official web portal to all federal, state and local government web resources and services.